| time (UTC) | temp F | wind direction | speed knots | gust knots | rain 1hr in | rain 24hr in | rain mn in | humidity % | barometer mb |
| 20260906184604 | 71 | 125 | 1.7 | 4.3 | 0.00 | 0.00 | 0.00 | 62 | 1020.4 |
| 20260906184105 | 71 | 126 | 1.7 | 2.6 | 0.00 | 0.00 | 0.00 | 61 | 1020.5 |
| 20260906182106 | 72 | 126 | 1.7 | 2.6 | 0.00 | 0.00 | 0.00 | 60 | 1020.8 |
| 20260906181604 | 72 | 126 | 1.7 | 4.3 | 0.00 | 0.00 | 0.00 | 59 | 1020.7 |
| 20260906181106 | 72 | 125 | 1.7 | 4.3 | 0.00 | 0.00 | 0.00 | 59 | 1020.9 |
| 20260906180104 | 72 | 126 | 1.7 | 2.6 | 0.00 | 0.00 | 0.00 | 58 | 1020.8 |
| 20260906175605 | 72 | 125 | 0.9 | 4.3 | 0.00 | 0.00 | 0.00 | 58 | 1020.8 |
| 20260906175105 | 72 | 125 | 1.7 | 4.3 | 0.00 | 0.00 | 0.00 | 57 | 1020.9 |
| 20260906173605 | 73 | 126 | 2.6 | 5.2 | 0.00 | 0.00 | 0.00 | 56 | 1021.0 |
| 20260906173105 | 73 | 118 | 2.6 | 4.3 | 0.00 | 0.00 | 0.00 | 55 | 1021.0 |
| 20260906172604 | 73 | 113 | 1.7 | 6.1 | 0.00 | 0.00 | 0.00 | 55 | 1021.0 |
| 20260906172105 | 73 | 113 | 2.6 | 6.1 | 0.00 | 0.00 | 0.00 | 54 | 1021.2 |
| 20260906171604 | 74 | 111 | 2.6 | 7.0 | 0.00 | 0.00 | 0.00 | 54 | 1021.4 |
| 20260906171106 | 74 | 123 | 4.3 | 7.0 | 0.00 | 0.00 | 0.00 | 53 | 1021.4 |
| 20260906170106 | 74 | 154 | 2.6 | 6.1 | 0.00 | 0.00 | 0.00 | 53 | 1021.4 |
| 20260906164604 | 74 | 145 | 1.7 | 5.2 | 0.00 | 0.00 | 0.00 | 53 | 1021.5 |
| 20260906164105 | 75 | 146 | 4.3 | 7.0 | 0.00 | 0.00 | 0.00 | 52 | 1021.7 |
| 20260906163604 | 75 | 145 | 2.6 | 7.0 | 0.00 | 0.00 | 0.00 | 53 | 1021.7 |
| 20260906162604 | 74 | 152 | 5.2 | 10.4 | 0.00 | 0.00 | 0.00 | 52 | 1021.5 |
| 20260906162105 | 74 | 101 | 3.5 | 6.1 | 0.00 | 0.00 | 0.00 | 52 | 1021.6 |
| 20260906161605 | 74 | 136 | 2.6 | 7.8 | 0.00 | 0.00 | 0.00 | 53 | 1021.8 |
| 20260906161105 | 74 | 119 | 4.3 | 8.7 | 0.00 | 0.00 | 0.00 | 52 | 1021.8 |
| 20260906151105 | 75 | 171 | 4.3 | 7.8 | 0.00 | 0.00 | 0.00 | 48 | 1022.0 |
| 20260906150105 | 74 | 169 | 5.2 | 10.4 | 0.00 | 0.00 | 0.00 | 49 | 1022.1 |
| 20260906143604 | 74 | 127 | 4.3 | 10.4 | 0.00 | 0.00 | 0.00 | 52 | 1022.5 |
| 20260906143105 | 74 | 120 | 4.3 | 10.4 | 0.00 | 0.00 | 0.00 | 52 | 1022.5 |
| 20260906142604 | 74 | 186 | 4.3 | 7.0 | 0.00 | 0.00 | 0.00 | 50 | 1022.6 |
| 20260906142105 | 74 | 170 | 2.6 | 7.8 | 0.00 | 0.00 | 0.00 | 52 | 1022.6 |
| 20260906140104 | 73 | 225 | 5.2 | 10.4 | 0.00 | 0.00 | 0.00 | 53 | 1023.0 |
| 20260906135603 | 73 | 96 | 6.1 | 12.2 | 0.00 | 0.00 | 0.00 | 53 | 1023.0 |
| 20260906135104 | 73 | 149 | 5.2 | 8.7 | 0.00 | 0.00 | 0.00 | 54 | 1023.0 |
| 20260906134604 | 73 | 179 | 4.3 | 7.8 | 0.00 | 0.00 | 0.00 | 54 | 1023.0 |
| 20260906134105 | 73 | 128 | 4.3 | 7.8 | 0.00 | 0.00 | 0.00 | 55 | 1023.0 |
| 20260906132105 | 71 | 138 | 4.3 | 8.7 | 0.00 | 0.00 | 0.00 | 57 | 1023.2 |
| 20260906131604 | 71 | 133 | 4.3 | 10.4 | 0.00 | 0.00 | 0.00 | 56 | 1023.3 |
| 20260906131105 | 71 | 149 | 4.3 | 10.4 | 0.00 | 0.00 | 0.00 | 57 | 1023.5 |
| 20260906130104 | 72 | 142 | 5.2 | 8.7 | 0.00 | 0.00 | 0.00 | 56 | 1023.5 |
| 20260906125105 | 71 | 159 | 1.7 | 6.1 | 0.00 | 0.00 | 0.00 | 56 | 1023.7 |
| 20260906124604 | 71 | 171 | 2.6 | 6.1 | 0.00 | 0.00 | 0.00 | 56 | 1023.8 |
| 20260906124105 | 71 | 149 | 2.6 | 8.7 | 0.00 | 0.00 | 0.00 | 57 | 1024.0 |
| 20260906123604 | 71 | 192 | 4.3 | 8.7 | 0.00 | 0.00 | 0.00 | 55 | 1024.0 |
| 20260906122604 | 71 | 141 | 2.6 | 7.0 | 0.00 | 0.00 | 0.00 | 57 | 1023.9 |
| 20260906121605 | 71 | 191 | 4.3 | 10.4 | 0.00 | 0.00 | 0.00 | 56 | 1024.0 |
| 20260906121104 | 71 | 116 | 2.6 | 10.4 | 0.00 | 0.00 | 0.00 | 56 | 1024.0 |
| 20260906110104 | 69 | 158 | 3.5 | 6.1 | 0.00 | 0.00 | 0.00 | 60 | 1024.6 |
| 20260906104604 | 69 | 142 | 5.2 | 8.7 | 0.00 | 0.00 | 0.00 | 61 | 1024.8 |
| 20260906104104 | 69 | 181 | 5.2 | 8.7 | 0.00 | 0.00 | 0.00 | 60 | 1025.0 |
| 20260906103105 | 68 | 173 | 5.2 | 8.7 | 0.00 | 0.00 | 0.00 | 62 | 1025.1 |
| 20260906102604 | 68 | 131 | 4.3 | 7.8 | 0.00 | 0.00 | 0.00 | 63 | 1025.1 |
| 20260906102105 | 68 | 192 | 3.5 | 7.8 | 0.00 | 0.00 | 0.00 | 63 | 1025.1 |
| 20260906101104 | 68 | 171 | 4.3 | 8.7 | 0.00 | 0.00 | 0.00 | 63 | 1025.4 |
| 20260906100104 | 68 | 165 | 3.5 | 10.4 | 0.00 | 0.00 | 0.00 | 62 | 1025.4 |
| 20260906095604 | 69 | 160 | 5.2 | 8.7 | 0.00 | 0.00 | 0.00 | 62 | 1025.5 |
| 20260906095104 | 68 | 213 | 3.5 | 7.8 | 0.00 | 0.00 | 0.00 | 64 | 1025.4 |
| 20260906094105 | 68 | 118 | 2.6 | 8.7 | 0.00 | 0.00 | 0.00 | 65 | 1025.5 |
| 20260906093105 | 67 | 150 | 4.3 | 8.7 | 0.00 | 0.00 | 0.00 | 64 | 1025.6 |
| 20260906092603 | 67 | 163 | 5.2 | 10.4 | 0.00 | 0.00 | 0.00 | 64 | 1025.6 |
| 20260906092105 | 67 | 177 | 5.2 | 8.7 | 0.00 | 0.00 | 0.00 | 65 | 1025.7 |
| 20260906090103 | 67 | 191 | 3.5 | 6.1 | 0.00 | 0.00 | 0.00 | 68 | 1025.9 |
| 20260906082606 | 65 | 166 | 4.3 | 8.7 | 0.00 | 0.00 | 0.00 | 70 | 1026.1 |
| 20260906082104 | 65 | 186 | 2.6 | 7.0 | 0.00 | 0.00 | 0.00 | 73 | 1026.1 |
| 20260906081604 | 65 | 183 | 2.6 | 7.8 | 0.00 | 0.00 | 0.00 | 72 | 1026.1 |
| 20260906081104 | 64 | 160 | 2.6 | 10.4 | 0.00 | 0.00 | 0.00 | 73 | 1026.1 |
| 20260906065603 | 61 | 196 | 0.9 | 2.6 | 0.00 | 0.00 | 0.00 | 82 | 1026.2 |
| 20260906065104 | 61 | 196 | 1.7 | 5.2 | 0.00 | 0.00 | 0.00 | 83 | 1026.2 |
| 20260906064104 | 60 | 195 | 1.7 | 4.3 | 0.00 | 0.00 | 0.00 | 83 | 1026.1 |
| 20260906063604 | 60 | 197 | 1.7 | 4.3 | 0.00 | 0.00 | 0.00 | 83 | 1026.1 |
| 20260906063105 | 60 | 197 | 2.6 | 4.3 | 0.00 | 0.00 | 0.00 | 84 | 1026.1 |
| 20260906062603 | 59 | 198 | 0.9 | 4.3 | 0.00 | 0.00 | 0.00 | 85 | 1026.1 |
| 20260906062104 | 59 | 199 | 1.7 | 2.6 | 0.00 | 0.00 | 0.00 | 85 | 1026.1 |
| 20260906060103 | 58 | 200 | 1.7 | 2.6 | 0.00 | 0.00 | 0.00 | 88 | 1025.9 |
| 20260906055606 | 58 | 200 | 1.7 | 2.6 | 0.00 | 0.00 | 0.00 | 88 | 1025.9 |
| 20260906055105 | 57 | 200 | 1.7 | 2.6 | 0.00 | 0.00 | 0.00 | 89 | 1025.8 |
| 20260906054603 | 57 | 200 | 1.7 | 2.6 | 0.00 | 0.00 | 0.00 | 89 | 1025.8 |
| 20260906054104 | 57 | 200 | 0.9 | 2.6 | 0.00 | 0.00 | 0.00 | 89 | 1025.9 |
| 20260906051604 | 57 | 200 | 1.7 | 2.6 | 0.00 | 0.00 | 0.00 | 88 | 1025.8 |
| 20260906051105 | 57 | 200 | 1.7 | 2.6 | 0.00 | 0.00 | 0.00 | 88 | 1025.8 |
| 20260906044104 | 57 | 200 | 1.7 | 2.6 | 0.00 | 0.00 | 0.00 | 87 | 1025.6 |
| 20260906043604 | 57 | 200 | 1.7 | 2.6 | 0.00 | 0.00 | 0.00 | 87 | 1025.6 |
| 20260906043104 | 57 | 200 | 0.9 | 2.6 | 0.00 | 0.00 | 0.00 | 87 | 1025.6 |
| 20260906042603 | 57 | 200 | 1.7 | 2.6 | 0.00 | 0.00 | 0.00 | 87 | 1025.9 |
| 20260906035603 | 57 | 201 | 1.7 | 2.6 | 0.00 | 0.00 | 0.00 | 87 | 1025.9 |
| 20260906035104 | 57 | 201 | 1.7 | 2.6 | 0.00 | 0.00 | 0.00 | 87 | 1026.1 |
| 20260906034603 | 57 | 201 | 2.6 | 4.3 | 0.00 | 0.00 | 0.00 | 88 | 1026.1 |
| 20260906034104 | 57 | 301 | 1.7 | 4.3 | 0.00 | 0.00 | 0.00 | 88 | 1026.1 |
| 20260906032103 | 57 | 303 | 0.0 | 0.9 | 0.00 | 0.00 | 0.00 | 88 | 1026.1 |
| 20260906031603 | 57 | 303 | 0.0 | 2.6 | 0.00 | 0.00 | 0.00 | 88 | 1026.1 |
| 20260906031103 | 57 | 303 | 0.9 | 2.6 | 0.00 | 0.00 | 0.00 | 88 | 1026.2 |
| 20260906025603 | 57 | 303 | 0.9 | 2.6 | 0.00 | 0.00 | 0.00 | 88 | 1026.2 |
| 20260906025103 | 57 | 303 | 0.9 | 1.7 | 0.00 | 0.00 | 0.00 | 88 | 1026.2 |
| 20260906024603 | 57 | 303 | 0.0 | 2.6 | 0.00 | 0.00 | 0.00 | 88 | 1026.2 |
| 20260906024103 | 57 | 303 | 0.9 | 2.6 | 0.00 | 0.00 | 0.00 | 88 | 1026.5 |
| 20260906022104 | 57 | 303 | 0.9 | 2.6 | 0.00 | 0.00 | 0.00 | 89 | 1026.7 |
| 20260906021603 | 57 | 303 | 0.0 | 2.6 | 0.00 | 0.00 | 0.00 | 89 | 1026.7 |
| 20260906015603 | 57 | 303 | 0.0 | 0.0 | 0.00 | 0.00 | 0.00 | 89 | 1026.7 |
| 20260906015104 | 57 | 303 | 0.0 | 0.0 | 0.00 | 0.00 | 0.00 | 89 | 1026.7 |
| 20260906014603 | 57 | 303 | 0.0 | 0.0 | 0.00 | 0.00 | 0.00 | 89 | 1026.7 |
| 20260906014104 | 57 | 303 | 0.0 | 0.0 | 0.00 | 0.00 | 0.00 | 89 | 1026.6 |
| 20260906013603 | 57 | 303 | 0.0 | 0.0 | 0.00 | 0.00 | 0.00 | 88 | 1026.6 |
| 20260906013104 | 57 | 303 | 0.0 | 1.7 | 0.00 | 0.00 | 0.00 | 88 | 1026.5 |
| 20260906012603 | 57 | 303 | 0.0 | 1.7 | 0.00 | 0.00 | 0.00 | 89 | 1026.6 |
| 20260906005603 | 57 | 303 | 0.9 | 1.7 | 0.00 | 0.00 | 0.00 | 89 | 1026.7 |
| 20260906003104 | 58 | 303 | 0.0 | 0.0 | 0.00 | 0.00 | 0.00 | 89 | 1026.6 |
| 20260906002603 | 58 | 303 | 0.0 | 0.0 | 0.00 | 0.00 | 0.00 | 89 | 1026.6 |
| 20260906001104 | 58 | 303 | 0.0 | 1.7 | 0.00 | 0.00 | 0.00 | 88 | 1026.6 |
| 20260905233104 | 58 | 303 | 0.0 | 1.7 | 0.00 | 0.00 | 0.00 | 88 | 1026.5 |
| 20260905232603 | 58 | 303 | 0.0 | 0.9 | 0.00 | 0.00 | 0.00 | 88 | 1026.5 |
| 20260905231104 | 58 | 303 | 0.9 | 1.7 | 0.00 | 0.00 | 0.00 | 88 | 1026.6 |
| 20260905221602 | 58 | 303 | 0.0 | 0.9 | 0.00 | 0.00 | 0.00 | 87 | 1026.2 |
| 20260905221104 | 58 | 303 | 0.0 | 1.7 | 0.00 | 0.00 | 0.00 | 87 | 1026.1 |
| 20260905213602 | 58 | 303 | 0.0 | 0.0 | 0.00 | 0.00 | 0.00 | 87 | 1026.0 |
| 20260905213103 | 58 | 303 | 0.0 | 0.0 | 0.00 | 0.00 | 0.00 | 86 | 1026.1 |
| 20260905212602 | 59 | 303 | 0.0 | 0.0 | 0.00 | 0.00 | 0.00 | 86 | 1026.1 |
| 20260905212103 | 59 | 303 | 0.0 | 0.0 | 0.00 | 0.00 | 0.00 | 86 | 1026.1 |
| 20260905204602 | 60 | 303 | 0.0 | 0.0 | 0.00 | 0.00 | 0.00 | 84 | 1025.9 |
| 20260905204103 | 60 | 303 | 0.0 | 0.0 | 0.00 | 0.00 | 0.00 | 84 | 1025.9 |
| 20260905203103 | 60 | 303 | 0.0 | 0.0 | 0.00 | 0.00 | 0.00 | 84 | 1026.0 |
| 20260905202603 | 60 | 303 | 0.0 | 0.0 | 0.00 | 0.00 | 0.00 | 84 | 1026.0 |
| 20260905202103 | 60 | 303 | 0.0 | 0.0 | 0.00 | 0.00 | 0.00 | 83 | 1025.9 |
| 20260905195602 | 61 | 303 | 0.0 | 0.0 | 0.00 | 0.00 | 0.00 | 81 | 1025.7 |
| 20260905193603 | 62 | 303 | 0.0 | 0.0 | 0.00 | 0.00 | 0.00 | 79 | 1025.6 |
| 20260905193103 | 62 | 303 | 0.0 | 0.0 | 0.00 | 0.00 | 0.00 | 78 | 1025.6 |
| 20260905191602 | 63 | 303 | 0.0 | 0.0 | 0.00 | 0.00 | 0.00 | 76 | 1025.6 |
| 20260905191104 | 63 | 303 | 0.0 | 0.9 | 0.00 | 0.00 | 0.00 | 76 | 1025.5 |